Location: Boiro
(42.6475°N, 8.8834°W)
Time: 23:58:01
(UTC+01:00)

Tiros 1 - Pass Details

Date: 05 December 2021
Orbit: 629 x 664 km, 48.4° (Epoch: 26 January)

Event Time Altitude Azimuth Distance (km) Brightness Sun altitude
Rises 18:27:39 0° 206° (SSW) 2,901 11.5 -5.0°
Reaches altitude 10° 18:30:14 10° 194° (SSW) 2,000 10.3 -5.4°
Maximum altitude 18:34:03 26° 138° (SE) 1,240 8.5 -6.0°
Drops below altitude 10° 18:37:55 10° 81° (E) 2,023 9.1 -6.7°
Enters shadow 18:38:30 - 78° (ENE) 2,216 9.3 -6.8°
